Year,Month,Day,Hour,Minute,Value (Times are PST for temperature in C)
2009,06,05,00,00,21.60
2009,06,05,00,01,21.60
2009,06,05,00,02,21.50
2009,06,05,00,03,21.40
2009,06,05,00,04,21.30
2009,06,05,00,05,21.30
2009,06,05,00,06,21.20
2009,06,05,00,07,21.20
2009,06,05,00,08,21.10
2009,06,05,00,09,21.00
2009,06,05,00,10,21.00
2009,06,05,00,11,20.90
2009,06,05,00,12,20.80
2009,06,05,00,13,20.70
2009,06,05,00,14,20.70
2009,06,05,00,15,20.60
2009,06,05,00,16,20.50
2009,06,05,00,17,20.40
2009,06,05,00,18,20.30
2009,06,05,00,19,20.20
2009,06,05,00,20,20.10
2009,06,05,00,21,20.00
2009,06,05,00,22,19.90
2009,06,05,00,23,19.80
2009,06,05,00,24,19.70
2009,06,05,00,25,19.60
2009,06,05,00,26,19.50
2009,06,05,00,27,19.40
2009,06,05,00,28,19.40
2009,06,05,00,29,19.30
2009,06,05,00,30,19.30
2009,06,05,00,31,19.30
2009,06,05,00,32,19.30
2009,06,05,00,33,19.30
2009,06,05,00,34,19.30
2009,06,05,00,35,19.30
2009,06,05,00,36,19.40
2009,06,05,00,37,19.40
2009,06,05,00,38,19.40
2009,06,05,00,39,19.40
2009,06,05,00,40,19.40
2009,06,05,00,41,19.30
2009,06,05,00,42,19.30
2009,06,05,00,43,19.30
2009,06,05,00,44,19.30
2009,06,05,00,45,19.30
2009,06,05,00,46,19.30
2009,06,05,00,47,19.30
2009,06,05,00,48,19.30
2009,06,05,00,49,19.30
2009,06,05,00,50,19.30
2009,06,05,00,51,19.30
2009,06,05,00,52,19.30
2009,06,05,00,53,19.30
2009,06,05,00,54,19.30
2009,06,05,00,55,19.30
2009,06,05,00,56,19.30
2009,06,05,00,57,19.30
2009,06,05,00,58,19.40
2009,06,05,00,59,19.40
2009,06,05,01,00,19.40
2009,06,05,01,01,19.40
2009,06,05,01,02,19.50
2009,06,05,01,03,19.50
2009,06,05,01,04,19.50
2009,06,05,01,05,19.50
2009,06,05,01,06,19.60
2009,06,05,01,07,19.70
2009,06,05,01,08,19.80
2009,06,05,01,09,19.80
2009,06,05,01,10,19.90
2009,06,05,01,11,19.90
2009,06,05,01,12,19.90
2009,06,05,01,13,20.00
2009,06,05,01,14,20.10
2009,06,05,01,15,20.20
2009,06,05,01,16,20.20
2009,06,05,01,17,20.30
2009,06,05,01,18,20.30
2009,06,05,01,19,20.40
2009,06,05,01,20,20.50
2009,06,05,01,21,20.60
2009,06,05,01,22,20.70
2009,06,05,01,23,20.80
2009,06,05,01,24,20.90
2009,06,05,01,25,20.90
2009,06,05,01,26,21.00
2009,06,05,01,27,21.00
2009,06,05,01,28,21.10
2009,06,05,01,29,21.20
2009,06,05,01,30,21.20
2009,06,05,01,31,21.30
2009,06,05,01,32,21.40
2009,06,05,01,33,21.50
2009,06,05,01,34,21.60
2009,06,05,01,35,21.60
2009,06,05,01,36,21.60
2009,06,05,01,37,21.80
2009,06,05,01,38,21.80
2009,06,05,01,39,21.90
2009,06,05,01,40,22.00
2009,06,05,01,41,22.00
2009,06,05,01,42,22.00
2009,06,05,01,43,22.00
2009,06,05,01,44,22.10
2009,06,05,01,45,22.10
2009,06,05,01,46,22.10
2009,06,05,01,47,22.10
2009,06,05,01,48,22.10
2009,06,05,01,49,22.10
2009,06,05,01,50,22.10
2009,06,05,01,51,22.10
2009,06,05,01,52,22.10
2009,06,05,01,53,22.10
2009,06,05,01,54,22.10
2009,06,05,01,55,22.10
2009,06,05,01,56,22.20
2009,06,05,01,57,22.20
2009,06,05,01,58,22.20
2009,06,05,01,59,22.20
2009,06,05,02,00,22.20
2009,06,05,02,01,22.20
2009,06,05,02,02,22.10
2009,06,05,02,03,22.10
2009,06,05,02,04,22.10
2009,06,05,02,05,22.10
2009,06,05,02,06,22.10
2009,06,05,02,07,22.00
2009,06,05,02,08,22.00
2009,06,05,02,09,22.00
2009,06,05,02,10,22.00
2009,06,05,02,11,21.90
2009,06,05,02,12,21.90
2009,06,05,02,13,21.90
2009,06,05,02,14,21.90
2009,06,05,02,15,21.90
2009,06,05,02,16,21.90
2009,06,05,02,17,21.90
2009,06,05,02,18,21.90
2009,06,05,02,19,21.90
2009,06,05,02,20,21.80
2009,06,05,02,21,21.80
2009,06,05,02,22,21.80
2009,06,05,02,23,21.80
2009,06,05,02,24,21.80
2009,06,05,02,25,21.70
2009,06,05,02,26,21.70
2009,06,05,02,27,21.60
2009,06,05,02,28,21.60
2009,06,05,02,29,21.60
2009,06,05,02,30,21.60
2009,06,05,02,31,21.50
2009,06,05,02,32,21.40
2009,06,05,02,33,21.40
2009,06,05,02,34,21.40
2009,06,05,02,35,21.30
2009,06,05,02,36,21.30
2009,06,05,02,37,21.30
2009,06,05,02,38,21.20
2009,06,05,02,39,21.20
2009,06,05,02,40,21.10
2009,06,05,02,41,21.00
2009,06,05,02,42,21.00
2009,06,05,02,43,20.90
2009,06,05,02,44,20.90
2009,06,05,02,45,20.80
2009,06,05,02,46,20.70
2009,06,05,02,47,20.60
2009,06,05,02,48,20.60
2009,06,05,02,49,20.50
2009,06,05,02,50,20.50
2009,06,05,02,51,20.50
2009,06,05,02,52,20.50
2009,06,05,02,53,20.60
2009,06,05,02,54,20.70
2009,06,05,02,55,20.70
2009,06,05,02,56,20.70
2009,06,05,02,57,20.70
2009,06,05,02,58,20.60
2009,06,05,02,59,20.50
2009,06,05,03,00,20.50
2009,06,05,03,01,20.40
2009,06,05,03,02,20.50
2009,06,05,03,03,20.50
2009,06,05,03,04,20.60
2009,06,05,03,05,20.70
2009,06,05,03,06,20.70
2009,06,05,03,07,20.70
2009,06,05,03,08,20.80
2009,06,05,03,09,20.90
2009,06,05,03,10,20.90
2009,06,05,03,11,21.00
2009,06,05,03,12,21.00
2009,06,05,03,13,21.10
2009,06,05,03,14,21.10
2009,06,05,03,15,21.10
2009,06,05,03,16,21.10
2009,06,05,03,17,21.10
2009,06,05,03,18,21.10
2009,06,05,03,19,21.10
2009,06,05,03,20,21.20
2009,06,05,03,21,21.20
2009,06,05,03,22,21.20
2009,06,05,03,23,21.20
2009,06,05,03,24,21.20
2009,06,05,03,25,21.20
2009,06,05,03,26,21.20
2009,06,05,03,27,21.20
2009,06,05,03,28,21.10
2009,06,05,03,29,21.10
2009,06,05,03,30,21.10
2009,06,05,03,31,21.10
2009,06,05,03,32,21.10
2009,06,05,03,33,21.10
2009,06,05,03,34,21.00
2009,06,05,03,35,21.00
2009,06,05,03,36,21.00
2009,06,05,03,37,21.00
2009,06,05,03,38,21.00
2009,06,05,03,39,20.90
2009,06,05,03,40,20.90
2009,06,05,03,41,20.90
2009,06,05,03,42,20.90
2009,06,05,03,43,20.90
2009,06,05,03,44,20.80
2009,06,05,03,45,20.80
2009,06,05,03,46,20.80
2009,06,05,03,47,20.80
2009,06,05,03,48,20.80
2009,06,05,03,49,20.80
2009,06,05,03,50,20.80
2009,06,05,03,51,20.70
2009,06,05,03,52,20.70
2009,06,05,03,53,20.70
2009,06,05,03,54,20.60
2009,06,05,03,55,20.60
2009,06,05,03,56,20.60
2009,06,05,03,57,20.50
2009,06,05,03,58,20.50
2009,06,05,03,59,20.50
2009,06,05,04,00,20.50
2009,06,05,04,01,20.40
2009,06,05,04,02,20.40
2009,06,05,04,03,20.40
2009,06,05,04,04,20.40
2009,06,05,04,05,20.40
2009,06,05,04,06,20.30
2009,06,05,04,07,20.30
2009,06,05,04,08,20.30
2009,06,05,04,09,20.30
2009,06,05,04,10,20.30
2009,06,05,04,11,20.30
2009,06,05,04,12,20.30
2009,06,05,04,13,20.30
2009,06,05,04,14,20.30
2009,06,05,04,15,20.30
2009,06,05,04,16,20.20
2009,06,05,04,17,20.20
2009,06,05,04,18,20.10
2009,06,05,04,19,19.90
2009,06,05,04,20,19.70
2009,06,05,04,21,19.50
2009,06,05,04,22,19.30
2009,06,05,04,23,19.20
2009,06,05,04,24,19.10
2009,06,05,04,25,19.00
2009,06,05,04,26,18.90
2009,06,05,04,27,18.80
2009,06,05,04,28,18.70
2009,06,05,04,29,18.60
2009,06,05,04,30,18.40
2009,06,05,04,31,18.20
2009,06,05,04,32,18.00
2009,06,05,04,33,17.70
2009,06,05,04,34,17.60
2009,06,05,04,35,17.50
2009,06,05,04,36,17.30
2009,06,05,04,37,17.20
2009,06,05,04,38,17.10
2009,06,05,04,39,17.00
2009,06,05,04,40,16.90
2009,06,05,04,41,16.90
2009,06,05,04,42,16.80
2009,06,05,04,43,16.70
2009,06,05,04,44,16.70
2009,06,05,04,45,16.60
2009,06,05,04,46,16.60
2009,06,05,04,47,16.50
2009,06,05,04,48,16.40
2009,06,05,04,49,16.40
2009,06,05,04,50,16.40
2009,06,05,04,51,16.30
2009,06,05,04,52,16.20
2009,06,05,04,53,16.20
2009,06,05,04,54,16.10
2009,06,05,04,55,16.10
2009,06,05,04,56,16.10
2009,06,05,04,57,16.10
2009,06,05,04,58,16.10
2009,06,05,04,59,16.10
2009,06,05,05,00,16.10
2009,06,05,05,01,16.10
2009,06,05,05,02,15.90
2009,06,05,05,03,15.90
2009,06,05,05,04,15.80
2009,06,05,05,05,15.80
2009,06,05,05,06,15.80
2009,06,05,05,07,15.70
2009,06,05,05,08,15.60
2009,06,05,05,09,15.60
2009,06,05,05,10,15.50
2009,06,05,05,11,15.50
2009,06,05,05,12,15.50
2009,06,05,05,13,15.50
2009,06,05,05,14,15.50
2009,06,05,05,15,15.50
2009,06,05,05,16,15.50
2009,06,05,05,17,15.50
2009,06,05,05,18,15.50
2009,06,05,05,19,15.50
2009,06,05,05,20,15.60
2009,06,05,05,21,15.80
2009,06,05,05,22,15.90
2009,06,05,05,23,15.90
2009,06,05,05,24,15.90
2009,06,05,05,25,15.90
2009,06,05,05,26,15.90
2009,06,05,05,27,15.90
2009,06,05,05,28,15.80
2009,06,05,05,29,15.80
2009,06,05,05,30,15.80
2009,06,05,05,31,15.90
2009,06,05,05,32,16.00
2009,06,05,05,33,16.10
2009,06,05,05,34,16.10
2009,06,05,05,35,16.20
2009,06,05,05,36,16.20
2009,06,05,05,37,16.30
2009,06,05,05,38,16.50
2009,06,05,05,39,16.80
2009,06,05,05,40,17.10
2009,06,05,05,41,17.50
2009,06,05,05,42,17.80
2009,06,05,05,43,17.90
2009,06,05,05,44,18.10
2009,06,05,05,45,18.20
2009,06,05,05,46,18.30
2009,06,05,05,47,18.50
2009,06,05,05,48,18.70
2009,06,05,05,49,18.80
2009,06,05,05,50,18.80
2009,06,05,05,51,18.80
2009,06,05,05,52,18.90
2009,06,05,05,53,18.90
2009,06,05,05,54,18.90
2009,06,05,05,55,18.90
2009,06,05,05,56,18.90
2009,06,05,05,57,19.00
2009,06,05,05,58,19.10
2009,06,05,05,59,19.10
2009,06,05,06,00,19.10
2009,06,05,06,01,19.10
2009,06,05,06,02,19.10
2009,06,05,06,03,19.10
2009,06,05,06,04,19.10
2009,06,05,06,05,19.10
2009,06,05,06,06,19.10
2009,06,05,06,07,19.10
2009,06,05,06,08,19.10
2009,06,05,06,09,19.10
2009,06,05,06,10,19.10
2009,06,05,06,11,19.10
2009,06,05,06,12,19.10
2009,06,05,06,13,19.10
2009,06,05,06,14,19.10
2009,06,05,06,15,19.10
2009,06,05,06,16,19.10
2009,06,05,06,17,19.10
2009,06,05,06,18,19.10
2009,06,05,06,19,19.10
2009,06,05,06,20,19.10
2009,06,05,06,21,19.10
2009,06,05,06,22,19.10
2009,06,05,06,23,19.10
2009,06,05,06,24,19.10
2009,06,05,06,25,19.10
2009,06,05,06,26,19.10
2009,06,05,06,27,19.10
2009,06,05,06,28,19.10
2009,06,05,06,29,19.10
2009,06,05,06,30,19.10
2009,06,05,06,31,19.10
2009,06,05,06,32,19.10
2009,06,05,06,33,19.10
2009,06,05,06,34,19.10
2009,06,05,06,35,19.10
2009,06,05,06,36,19.10
2009,06,05,06,37,19.10
2009,06,05,06,38,19.10
2009,06,05,06,39,19.10
2009,06,05,06,40,19.10
2009,06,05,06,41,19.10
2009,06,05,06,42,19.20
2009,06,05,06,43,19.20
2009,06,05,06,44,19.20
2009,06,05,06,45,19.20
2009,06,05,06,46,19.20
2009,06,05,06,47,19.20
2009,06,05,06,48,19.30
2009,06,05,06,49,19.30
2009,06,05,06,50,19.30
2009,06,05,06,51,19.30
2009,06,05,06,52,19.30
2009,06,05,06,53,19.30
2009,06,05,06,54,19.40
2009,06,05,06,55,19.40
2009,06,05,06,56,19.40
2009,06,05,06,57,19.40
2009,06,05,06,58,19.40
2009,06,05,06,59,19.40
2009,06,05,07,00,19.40
2009,06,05,07,01,19.40
2009,06,05,07,02,19.40
2009,06,05,07,03,19.40
2009,06,05,07,04,19.40
2009,06,05,07,05,19.40
2009,06,05,07,06,19.40
2009,06,05,07,07,19.40
2009,06,05,07,08,19.40
2009,06,05,07,09,19.50
2009,06,05,07,10,19.50
2009,06,05,07,11,19.50
2009,06,05,07,12,19.50
2009,06,05,07,13,19.50
2009,06,05,07,14,19.60
2009,06,05,07,15,19.50
2009,06,05,07,16,19.60
2009,06,05,07,17,19.60
2009,06,05,07,18,19.60
2009,06,05,07,19,19.60
2009,06,05,07,20,19.60
2009,06,05,07,21,19.60
2009,06,05,07,22,19.60
2009,06,05,07,23,19.50
2009,06,05,07,24,19.40
2009,06,05,07,25,19.10
2009,06,05,07,26,19.00
2009,06,05,07,27,18.80
2009,06,05,07,28,18.60
2009,06,05,07,29,18.60
2009,06,05,07,30,18.50
2009,06,05,07,31,18.40
2009,06,05,07,32,18.20
2009,06,05,07,33,18.00
2009,06,05,07,34,17.80
2009,06,05,07,35,17.60
2009,06,05,07,36,17.50
2009,06,05,07,37,17.50
2009,06,05,07,38,17.50
2009,06,05,07,39,17.50
2009,06,05,07,40,17.50
2009,06,05,07,41,17.50
2009,06,05,07,42,17.60
2009,06,05,07,43,17.70
2009,06,05,07,44,17.70
2009,06,05,07,45,17.80
2009,06,05,07,46,17.90
2009,06,05,07,47,17.90
2009,06,05,07,48,18.00
2009,06,05,07,49,18.10
2009,06,05,07,50,18.20
2009,06,05,07,51,18.20
2009,06,05,07,52,18.30
2009,06,05,07,53,18.30
2009,06,05,07,54,18.30
2009,06,05,07,55,18.40
2009,06,05,07,56,18.40
2009,06,05,07,57,18.40
2009,06,05,07,58,18.50
2009,06,05,07,59,18.50
2009,06,05,08,00,18.60
2009,06,05,08,01,18.60
2009,06,05,08,02,18.60
2009,06,05,08,03,18.60
2009,06,05,08,04,18.60
2009,06,05,08,05,18.60
2009,06,05,08,06,18.50
2009,06,05,08,07,18.50
2009,06,05,08,08,18.50
2009,06,05,08,09,18.50
2009,06,05,08,10,18.60
2009,06,05,08,11,18.60
2009,06,05,08,12,18.70
2009,06,05,08,13,18.80
2009,06,05,08,14,18.90
2009,06,05,08,15,18.90
2009,06,05,08,16,19.00
2009,06,05,08,17,19.10
2009,06,05,08,18,19.10
2009,06,05,08,19,19.10
2009,06,05,08,20,19.00
2009,06,05,08,21,18.90
2009,06,05,08,22,18.90
2009,06,05,08,23,18.90
2009,06,05,08,24,19.00
2009,06,05,08,25,19.10
2009,06,05,08,26,19.10
2009,06,05,08,27,19.10
2009,06,05,08,28,19.10
2009,06,05,08,29,19.10
2009,06,05,08,30,19.10
2009,06,05,08,31,19.10
2009,06,05,08,32,19.10
2009,06,05,08,33,19.20
2009,06,05,08,34,19.40
2009,06,05,08,35,19.40
2009,06,05,08,36,19.50
2009,06,05,08,37,19.50
2009,06,05,08,38,19.70
2009,06,05,08,39,19.90
2009,06,05,08,40,20.10
2009,06,05,08,41,20.20
2009,06,05,08,42,20.30
2009,06,05,08,43,20.40
2009,06,05,08,44,20.50
2009,06,05,08,45,20.60
2009,06,05,08,46,20.60
2009,06,05,08,47,20.60
2009,06,05,08,48,20.60
2009,06,05,08,49,20.60
2009,06,05,08,50,20.70
2009,06,05,08,51,20.60
2009,06,05,08,52,20.60
2009,06,05,08,53,20.60
2009,06,05,08,54,20.70
2009,06,05,08,55,20.70
2009,06,05,08,56,20.70
2009,06,05,08,57,20.80
2009,06,05,08,58,20.80
2009,06,05,08,59,20.70
2009,06,05,09,00,20.70
2009,06,05,09,01,20.70
2009,06,05,09,02,20.80
2009,06,05,09,03,20.80
2009,06,05,09,04,20.90
2009,06,05,09,05,20.90
2009,06,05,09,06,20.90
2009,06,05,09,07,21.00
2009,06,05,09,08,21.00
2009,06,05,09,09,20.90
2009,06,05,09,10,20.90
2009,06,05,09,11,20.90
2009,06,05,09,12,20.90
2009,06,05,09,13,21.00
2009,06,05,09,14,21.10
2009,06,05,09,15,21.20
2009,06,05,09,16,21.30
2009,06,05,09,17,21.30
2009,06,05,09,18,21.40
2009,06,05,09,19,21.50
2009,06,05,09,20,21.60
2009,06,05,09,21,21.60
2009,06,05,09,22,21.50
2009,06,05,09,23,21.40
2009,06,05,09,24,21.30
2009,06,05,09,25,21.30
2009,06,05,09,26,21.20
2009,06,05,09,27,21.00
2009,06,05,09,28,20.80
2009,06,05,09,29,20.50
2009,06,05,09,30,20.50
2009,06,05,09,31,20.40
2009,06,05,09,32,20.30
2009,06,05,09,33,20.20
2009,06,05,09,34,20.10
2009,06,05,09,35,20.10
2009,06,05,09,36,20.10
2009,06,05,09,37,20.10
2009,06,05,09,38,20.00
2009,06,05,09,39,19.90
2009,06,05,09,40,20.00
2009,06,05,09,41,20.10
2009,06,05,09,42,20.20
2009,06,05,09,43,20.30
2009,06,05,09,44,20.30
2009,06,05,09,45,20.40
2009,06,05,09,46,20.40
2009,06,05,09,47,20.50
2009,06,05,09,48,20.50
2009,06,05,09,49,20.50
2009,06,05,09,50,20.50
2009,06,05,09,51,20.50
2009,06,05,09,52,20.50
2009,06,05,09,53,20.40
2009,06,05,09,54,20.40
2009,06,05,09,55,20.40
2009,06,05,09,56,20.20
2009,06,05,09,57,20.20
2009,06,05,09,58,20.20
2009,06,05,09,59,20.20
2009,06,05,10,00,20.10
2009,06,05,10,01,20.20
2009,06,05,10,02,20.20
2009,06,05,10,03,20.20
2009,06,05,10,04,20.20
2009,06,05,10,05,20.20
2009,06,05,10,06,20.30
2009,06,05,10,07,20.30
2009,06,05,10,08,20.30
2009,06,05,10,09,20.20
2009,06,05,10,10,20.20
2009,06,05,10,11,20.10
2009,06,05,10,12,20.00
2009,06,05,10,13,19.90
2009,06,05,10,14,19.90
2009,06,05,10,15,19.90
2009,06,05,10,16,20.00
2009,06,05,10,17,20.00
2009,06,05,10,18,20.00
2009,06,05,10,19,20.10
2009,06,05,10,20,20.10
2009,06,05,10,21,20.20
2009,06,05,10,22,20.30
2009,06,05,10,23,20.50
2009,06,05,10,24,20.60
2009,06,05,10,25,20.70
2009,06,05,10,26,20.70
2009,06,05,10,27,20.70
2009,06,05,10,28,20.70
2009,06,05,10,29,20.70
2009,06,05,10,30,20.60
2009,06,05,10,31,20.50
2009,06,05,10,32,20.50
2009,06,05,10,33,20.40
2009,06,05,10,34,20.40
2009,06,05,10,35,20.40
2009,06,05,10,36,20.40
2009,06,05,10,37,20.40
2009,06,05,10,38,20.40
2009,06,05,10,39,20.50
2009,06,05,10,40,20.70
2009,06,05,10,41,20.70
2009,06,05,10,42,20.60
2009,06,05,10,43,20.60
2009,06,05,10,44,20.70
2009,06,05,10,45,20.70
2009,06,05,10,46,20.80
2009,06,05,10,47,20.80
2009,06,05,10,48,20.70
2009,06,05,10,49,20.70
2009,06,05,10,50,20.60
2009,06,05,10,51,20.60
2009,06,05,10,52,20.60
2009,06,05,10,53,20.60
2009,06,05,10,54,20.60
2009,06,05,10,55,20.60
2009,06,05,10,56,20.70
2009,06,05,10,57,20.70
2009,06,05,10,58,20.90
2009,06,05,10,59,21.00
2009,06,05,11,00,21.10
2009,06,05,11,01,21.20
2009,06,05,11,02,21.20
2009,06,05,11,03,21.20
2009,06,05,11,04,21.20
2009,06,05,11,05,21.20
2009,06,05,11,06,21.20
2009,06,05,11,07,21.20
2009,06,05,11,08,21.20
2009,06,05,11,09,21.30
2009,06,05,11,10,21.40
2009,06,05,11,11,21.30
2009,06,05,11,12,21.30
2009,06,05,11,13,21.30
2009,06,05,11,14,21.40
2009,06,05,11,15,21.50
2009,06,05,11,16,21.60
2009,06,05,11,17,21.60
2009,06,05,11,18,21.60
2009,06,05,11,19,21.50
2009,06,05,11,20,21.40
2009,06,05,11,21,21.20
2009,06,05,11,22,21.10
2009,06,05,11,23,21.00
2009,06,05,11,24,21.00
2009,06,05,11,25,21.10
2009,06,05,11,26,21.30
2009,06,05,11,27,21.40
2009,06,05,11,28,21.50
2009,06,05,11,29,21.60
2009,06,05,11,30,21.70
2009,06,05,11,31,21.80
2009,06,05,11,32,21.90
2009,06,05,11,33,22.10
2009,06,05,11,34,22.20
2009,06,05,11,35,22.30
2009,06,05,11,36,22.30
2009,06,05,11,37,22.30
2009,06,05,11,38,22.30
2009,06,05,11,39,22.30
2009,06,05,11,40,22.30
2009,06,05,11,41,22.20
2009,06,05,11,42,22.10
2009,06,05,11,43,22.00
2009,06,05,11,44,21.90
2009,06,05,11,45,21.80
2009,06,05,11,46,21.80
2009,06,05,11,47,21.80
2009,06,05,11,48,21.80
2009,06,05,11,49,21.80
2009,06,05,11,50,21.80
2009,06,05,11,51,21.90
2009,06,05,11,52,21.90
2009,06,05,11,53,21.80
2009,06,05,11,54,21.80
2009,06,05,11,55,22.00
2009,06,05,11,56,22.00
2009,06,05,11,57,22.10
2009,06,05,11,58,22.10
2009,06,05,11,59,22.10
2009,06,05,12,00,22.20
2009,06,05,12,01,22.20
2009,06,05,12,02,22.30
2009,06,05,12,03,22.40
2009,06,05,12,04,22.50
2009,06,05,12,05,22.60
2009,06,05,12,06,22.60
2009,06,05,12,07,22.70
2009,06,05,12,08,22.70
2009,06,05,12,09,22.70
2009,06,05,12,10,22.60
2009,06,05,12,11,22.60
2009,06,05,12,12,22.60
2009,06,05,12,13,22.70
2009,06,05,12,14,22.80
2009,06,05,12,15,22.90
2009,06,05,12,16,22.90
2009,06,05,12,17,22.90
2009,06,05,12,18,22.90
2009,06,05,12,19,22.90
2009,06,05,12,20,22.80
2009,06,05,12,21,22.70
2009,06,05,12,22,22.70
2009,06,05,12,23,22.80
2009,06,05,12,24,22.80
2009,06,05,12,25,22.80
2009,06,05,12,26,22.80
2009,06,05,12,27,22.90
2009,06,05,12,28,22.90
2009,06,05,12,29,23.00
2009,06,05,12,30,23.10
2009,06,05,12,31,23.00
2009,06,05,12,32,22.90
2009,06,05,12,33,23.00
2009,06,05,12,34,23.10
2009,06,05,12,35,23.30
2009,06,05,12,36,23.30
2009,06,05,12,37,23.30
2009,06,05,12,38,23.50
2009,06,05,12,39,23.70
2009,06,05,12,40,23.80
2009,06,05,12,41,23.80
2009,06,05,12,42,23.80
2009,06,05,12,43,23.80
2009,06,05,12,44,23.80
2009,06,05,12,45,23.80
2009,06,05,12,46,23.80
2009,06,05,12,47,23.80
2009,06,05,12,48,23.80
2009,06,05,12,49,23.70
2009,06,05,12,50,23.70
2009,06,05,12,51,23.70
2009,06,05,12,52,23.60
2009,06,05,12,53,23.60
2009,06,05,12,54,23.60
2009,06,05,12,55,23.70
2009,06,05,12,56,23.60
2009,06,05,12,57,23.60
2009,06,05,12,58,23.70
2009,06,05,12,59,23.80
2009,06,05,13,00,24.00
2009,06,05,13,01,24.10
2009,06,05,13,02,24.10
2009,06,05,13,03,24.10
2009,06,05,13,04,24.20
2009,06,05,13,05,24.20
2009,06,05,13,06,24.10
2009,06,05,13,07,24.10
2009,06,05,13,08,24.10
2009,06,05,13,09,24.10
2009,06,05,13,10,24.10
2009,06,05,13,11,24.00
2009,06,05,13,12,23.90
2009,06,05,13,13,23.70
2009,06,05,13,14,23.70
2009,06,05,13,15,23.60
2009,06,05,13,16,23.40
2009,06,05,13,17,23.40
2009,06,05,13,18,23.40
2009,06,05,13,19,23.50
2009,06,05,13,20,23.60
2009,06,05,13,21,23.60
2009,06,05,13,22,23.50
2009,06,05,13,23,23.30
2009,06,05,13,24,23.30
2009,06,05,13,25,23.50
2009,06,05,13,26,23.60
2009,06,05,13,27,23.70
2009,06,05,13,28,23.60
2009,06,05,13,29,23.50
2009,06,05,13,30,23.40
2009,06,05,13,31,23.30
2009,06,05,13,32,23.30
2009,06,05,13,33,23.40
2009,06,05,13,34,23.50
2009,06,05,13,35,23.60
2009,06,05,13,36,23.60
2009,06,05,13,37,23.70
2009,06,05,13,38,23.60
2009,06,05,13,39,23.40
2009,06,05,13,40,23.40
2009,06,05,13,41,23.30
2009,06,05,13,42,23.40
2009,06,05,13,43,23.40
2009,06,05,13,44,23.40
2009,06,05,13,45,23.40
2009,06,05,13,46,23.40
2009,06,05,13,47,23.60
2009,06,05,13,48,23.60
2009,06,05,13,49,23.60
2009,06,05,13,50,23.70
2009,06,05,13,51,23.60
2009,06,05,13,52,23.60
2009,06,05,13,53,23.50
2009,06,05,13,54,23.40
2009,06,05,13,55,23.30
2009,06,05,13,56,23.40
2009,06,05,13,57,23.50
2009,06,05,13,58,23.60
2009,06,05,13,59,23.70
2009,06,05,14,00,23.70
2009,06,05,14,01,23.70
2009,06,05,14,02,23.80
2009,06,05,14,03,23.80
2009,06,05,14,04,23.80
2009,06,05,14,05,23.80
2009,06,05,14,06,23.70
2009,06,05,14,07,23.70
2009,06,05,14,08,23.70
2009,06,05,14,09,23.70
2009,06,05,14,10,23.70
2009,06,05,14,11,23.70
2009,06,05,14,12,23.70
2009,06,05,14,13,23.70
2009,06,05,14,14,23.60
2009,06,05,14,15,23.50
2009,06,05,14,16,23.40
2009,06,05,14,17,23.30
2009,06,05,14,18,23.30
2009,06,05,14,19,23.30
2009,06,05,14,20,23.20
2009,06,05,14,21,23.30
2009,06,05,14,22,23.40
2009,06,05,14,23,23.40
2009,06,05,14,24,23.40
2009,06,05,14,25,23.40
2009,06,05,14,26,23.30
2009,06,05,14,27,23.30
2009,06,05,14,28,23.40
2009,06,05,14,29,23.50
2009,06,05,14,30,23.70
2009,06,05,14,31,23.70
2009,06,05,14,32,23.60
2009,06,05,14,33,23.60
2009,06,05,14,34,23.40
2009,06,05,14,35,23.30
2009,06,05,14,36,23.30
2009,06,05,14,37,23.20
2009,06,05,14,38,23.10
2009,06,05,14,39,23.10
2009,06,05,14,40,23.20
2009,06,05,14,41,23.20
2009,06,05,14,42,23.20
2009,06,05,14,43,23.20
2009,06,05,14,44,23.10
2009,06,05,14,45,23.20
2009,06,05,14,46,23.20
2009,06,05,14,47,23.30
2009,06,05,14,48,23.30
2009,06,05,14,49,23.50
2009,06,05,14,50,23.60
2009,06,05,14,51,23.70
2009,06,05,14,52,23.60
2009,06,05,14,53,23.60
2009,06,05,14,54,23.60
2009,06,05,14,55,23.50
2009,06,05,14,56,23.40
2009,06,05,14,57,23.30
2009,06,05,14,58,23.20
2009,06,05,14,59,23.20
2009,06,05,15,00,23.20
2009,06,05,15,01,23.20
2009,06,05,15,02,23.20
2009,06,05,15,03,23.30
2009,06,05,15,04,23.30
2009,06,05,15,05,23.30
2009,06,05,15,06,23.30
2009,06,05,15,07,23.30
2009,06,05,15,08,23.20
2009,06,05,15,09,23.20
2009,06,05,15,10,23.30
2009,06,05,15,11,23.30
2009,06,05,15,12,23.40
2009,06,05,15,13,23.40
2009,06,05,15,14,23.30
2009,06,05,15,15,23.30
2009,06,05,15,16,23.30
2009,06,05,15,17,23.30
2009,06,05,15,18,23.30
2009,06,05,15,19,23.30
2009,06,05,15,20,23.40
2009,06,05,15,21,23.50
2009,06,05,15,22,23.60
2009,06,05,15,23,23.60
2009,06,05,15,24,23.60
2009,06,05,15,25,23.60
2009,06,05,15,26,23.60
2009,06,05,15,27,23.40
2009,06,05,15,28,23.30
2009,06,05,15,29,23.10
2009,06,05,15,30,23.00
2009,06,05,15,31,22.90
2009,06,05,15,32,22.90
2009,06,05,15,33,22.90
2009,06,05,15,34,22.90
2009,06,05,15,35,22.90
2009,06,05,15,36,22.90
2009,06,05,15,37,23.00
2009,06,05,15,38,23.20
2009,06,05,15,39,23.30
2009,06,05,15,40,23.30
2009,06,05,15,41,23.30
2009,06,05,15,42,23.20
2009,06,05,15,43,23.20
2009,06,05,15,44,23.10
2009,06,05,15,45,23.10
2009,06,05,15,46,22.90
2009,06,05,15,47,22.70
2009,06,05,15,48,22.60
2009,06,05,15,49,22.60
2009,06,05,15,50,22.50
2009,06,05,15,51,22.50
2009,06,05,15,52,22.40
2009,06,05,15,53,22.50
2009,06,05,15,54,22.50
2009,06,05,15,55,22.50
2009,06,05,15,56,22.50
2009,06,05,15,57,22.60
2009,06,05,15,58,22.60
2009,06,05,15,59,22.60
2009,06,05,16,00,22.60
2009,06,05,16,01,22.60
2009,06,05,16,02,22.60
2009,06,05,16,03,22.60
2009,06,05,16,04,22.70
2009,06,05,16,05,22.80
2009,06,05,16,06,22.80
2009,06,05,16,07,22.80
2009,06,05,16,08,22.80
2009,06,05,16,09,22.80
2009,06,05,16,10,22.70
2009,06,05,16,11,22.80
2009,06,05,16,12,22.70
2009,06,05,16,13,22.60
2009,06,05,16,14,22.70
2009,06,05,16,15,22.80
2009,06,05,16,16,22.80
2009,06,05,16,17,22.80
2009,06,05,16,18,22.80
2009,06,05,16,19,22.70
2009,06,05,16,20,22.70
2009,06,05,16,21,22.60
2009,06,05,16,22,22.70
2009,06,05,16,23,22.70
2009,06,05,16,24,22.70
2009,06,05,16,25,22.60
2009,06,05,16,26,22.60
2009,06,05,16,27,22.60
2009,06,05,16,28,22.60
2009,06,05,16,29,22.70
2009,06,05,16,30,22.60
2009,06,05,16,31,22.50
2009,06,05,16,32,22.40
2009,06,05,16,33,22.40
2009,06,05,16,34,22.40
2009,06,05,16,35,22.40
2009,06,05,16,36,22.40
2009,06,05,16,37,22.50
2009,06,05,16,38,22.60
2009,06,05,16,39,22.60
2009,06,05,16,40,22.60
2009,06,05,16,41,22.60
2009,06,05,16,42,22.60
2009,06,05,16,43,22.40
2009,06,05,16,44,22.30
2009,06,05,16,45,22.20
2009,06,05,16,46,22.10
2009,06,05,16,47,22.00
2009,06,05,16,48,21.90
2009,06,05,16,49,21.90
2009,06,05,16,50,21.90
2009,06,05,16,51,21.90
2009,06,05,16,52,21.90
2009,06,05,16,53,21.90
2009,06,05,16,54,21.90
2009,06,05,16,55,21.90
2009,06,05,16,56,21.90
2009,06,05,16,57,21.90
2009,06,05,16,58,21.90
2009,06,05,16,59,21.90
2009,06,05,17,00,21.80
2009,06,05,17,01,21.70
2009,06,05,17,02,21.60
2009,06,05,17,03,21.60
2009,06,05,17,04,21.60
2009,06,05,17,05,21.60
2009,06,05,17,06,21.60
2009,06,05,17,07,21.60
2009,06,05,17,08,21.50
2009,06,05,17,09,21.40
2009,06,05,17,10,21.30
2009,06,05,17,11,21.30
2009,06,05,17,12,21.30
2009,06,05,17,13,21.30
2009,06,05,17,14,21.30
2009,06,05,17,15,21.30
2009,06,05,17,16,21.20
2009,06,05,17,17,21.20
2009,06,05,17,18,21.20
2009,06,05,17,19,21.20